Location: Unspecified
(0.0000°N, 0.0000°E)
Time: 08:55:30
(UTC+00:00)

Explorer 11/Cluster Stage 4 - Pass Details

Date: 19 July 2020
Orbit: 467 x 1259 km, 28.8° (Epoch: 03 August)

Event Time Altitude Azimuth Distance (km) Brightness Sun altitude
Rises 15:24:24 0° 307° (NW) 3,631 10.9 37.4°
Reaches altitude 10° 15:26:53 10° 311° (NW) 2,794 10.6 36.9°
Maximum altitude 15:33:52 65° 32° (NNE) 1,248 8.1 35.3°
Drops below altitude 10° 15:41:55 10° 112° (ESE) 3,206 9.3 33.5°
Sets 15:44:58 0° 115° (ESE) 4,197 9.8 32.8°
